Location: Moscow
(55.7500°N, 37.5830°E)
Time: 08:42:59
(UTC+03:00)

N. Korean satellite - Pass Details

Date: 25 October 2021
Orbit: 446 x 495 km, 97.3° (Epoch: 04 December)

Event Time Altitude Azimuth Distance (km) Brightness Sun altitude
Rises 06:28:21 0° 11° (N) 2,604 10.3 -8.0°
Reaches altitude 10° 06:30:28 10° 6° (N) 1,714 9.3 -7.7°
Maximum altitude 06:34:04 51° 290° (WNW) 636 6.8 -7.2°
Drops below altitude 10° 06:37:36 10° 214° (SW) 1,689 9.1 -6.7°
Sets 06:39:41 0° 209° (SSW) 2,560 10.1 -6.4°
